Weather in Kuleshovka

Russia / Samara Oblast     52°46′55″N   51°06′09″E
temp.,
°C
wind,
m/s
gust,
m/s
humid.,
%
clouds,
%
prec.,
mm/h
press.,
hPa
HPBL,
m
7 march, sun
sun701:00−12nne2386100 0.0 101226
04:00−14nne2386100 0.0 101221
07:00−17nnw12842 0.0 101220
10:00−13wsw22831 0.0 101355
13:00−10wsw368519 0.0 1013268
16:00−9sw489352 0.0 1012394
19:00−11ssw499694 0.0 1012148
22:00−10ssw6139293 0.0 1011358
8 march, mon
mon801:00−7ssw101793100 0.4 1007678
04:00−5ssw111890100 1.1 1004932
07:00−4sw111992100 0.6 1001981
10:00−3sw111690100 1.1 10021245
13:00−2wsw81384100 0.7 10041454
16:00−3wsw61381100 0.8 1006830
19:00−4ssw4892100 0.0 1006197
22:00−4sw2398100 0.9 1006100
9 march, tue
tue901:00−3wsw4797100 0.9 1004280
04:00−5wsw51294100 1.1 1004387
07:00−10w5119342 0.0 1006210
10:00−10w379155 0.0 1009232
13:00−8w2285100 0.0 1009219
16:00−7wnw239185 0.0 1009279
19:00−9wnw3395100 0.0 100965
22:00−11nnw3594100 0.1 1011132
10 march, wed
wed1001:00−16nw3496100 0.0 101161
04:00−17wnw349798 0.1 101255
07:00−18nw3697100 0.0 101392
10:00−15nw479499 0.1 1014378
13:00−14nw5790100 0.0 1016534
16:00−14nnw4691100 0.1 1017661
19:00−18nnw4896100 0.1 1018240
22:00−21nw4898100 0.1 1020197
11 march, thu
thu1101:00−25nw469894 0.0 102198
04:00−27nw449871 0.0 102371
07:00−29nw34976 0.0 102438
10:00−25wnw34943 0.0 1026147
13:00−21wsw46930 0.0 1026245
16:00−19wsw59910 0.0 1026338
19:00−19wsw5109530 0.0 1026259
22:00−18wsw489664 0.1 1027147